Location: Brienzwiler
(46.7508°N, 8.1014°E)
Time: 01:34:27
(UTC+00:00)

Cosmos 2151 - Pass Details

Date: 05 July 2020
Orbit: 580 x 602 km, 82.5° (Epoch: 11 August)

Event Time Altitude Azimuth Distance (km) Brightness Sun altitude
Exits shadow 23:23:49 25° 246° (WSW) 1,217 4.3 -20.6°
Maximum altitude 23:25:24 33° 286° (WNW) 1,015 4.3 -20.6°
Drops below altitude 10° 23:29:18 10° 351° (N) 1,942 6.8 -20.6°
Sets 23:31:41 0° 2° (N) 2,845 8.1 -20.6°
